Regional Weather Roundup
Issued by NWS

Home | Current Version | Previous Version | Text Only | Print | Product List | Glossary Off
Versions: 1 2 3 4 5 6 7 8 9 10 11 12 13 14 15 16 17 18 19 20 21 22 23 24 25 26 27 28 29 30 31 32 33 34 35 36 37 38 39 40 41 42 43 44 45 46 47 48 49 50

000
ASUS43 KBIS 290010
RWRND

NORTH DAKOTA REGIONAL WEATHER ROUNDUP
NATIONAL WEATHER SERVICE BISMARCK ND
700 PM CDT TUE JUL 28 2015

NOTE: "FAIR" INDICATES FEW OR NO CLOUDS BELOW 12,000 FEET WITH NO
SIGNIFICANT WEATHER AND/OR OBSTRUCTIONS TO VISIBILITY.


NDZ001>003-009>011-017-290100-
NORTHWEST NORTH DAKOTA

CITY           SKY/WX    TMP DP  RH WIND       PRES   REMARKS
WILLISTON      RAIN      56  50  80 W41G62    29.74R
6HR MIN TEMP:  56; 6HR MAX TEMP:  62; 6HR PCP:  0.10;

MINOT          LGT RAIN  62  50  64 SW47G60   29.47F
MINOT AFB      LGT RAIN  59  57  94 W40G53    29.43S SQUALL  FOG
$$

NDZ018>021-031>035-040>046-290100-
SOUTHWEST NORTH DAKOTA

CITY           SKY/WX    TMP DP  RH WIND       PRES   REMARKS
BISMARCK       CLOUDY    69  47  45 W35G49    29.81R
6HR MIN TEMP:  69; 6HR MAX TEMP:  74;

DICKINSON      MOSUNNY   67  42  40 W43G53    29.86R
GARRISON         N/A     62  50  64 W41G56    29.65F
6HR MIN TEMP:  61; 6HR MAX TEMP:  69;

HETTINGER ARPT PTSUNNY   71  41  33 W39G54    29.97R
$$

NDZ004>008-012>016-024-026-027-054-290100-
NORTHEAST NORTH DAKOTA

CITY           SKY/WX    TMP DP  RH WIND       PRES   REMARKS
GRAND FORKS    PTSUNNY   74  53  48 SW29G39   29.62S
GRND FRKS AFB  CLOUDY    73  53  48 SW21G35   29.62F
$$

NDZ022-023-025-028>030-036>039-047>053-290100-
SOUTHEAST NORTH DAKOTA

CITY           SKY/WX    TMP DP  RH WIND       PRES   REMARKS
FARGO          PTSUNNY   77  52  41 SW21G32   29.73S
6HR MIN TEMP:  76; 6HR MAX TEMP:  81;

JAMESTOWN      MOSUNNY   71  47  42 W35G47    29.74R
$$




USA.gov is the U.S. government's official web portal to all federal, state and local government web resources and services.